Flag for Canada Weather past 2 weeks in Moose Jaw, Saskatchewan, Canada

75 °F

Partly sunny.

Feels Like: 78 °F
Forecast: N/A
Wind: 20 mph from West

Location: Regina Weather Station

Current Time: Oct 10, 2015 at 2:44:09 PM

Latest Report: Oct 10, 2015 at 2:00 PM

Visibility: 15 mi

Pressure: 29.54 "Hg (27.70 "Hg at 560m altitude)

Humidity: 44%

Dew point: 52 °F

Location of Moose JawLocation

Historic Weather in Moose Jaw — Graph


Moose Jaw temperature yesterday

Maximum temperature yesterday: 75 °F (at 3:00 PM)
Minimum temperature yesterday: 36 °F (at 12:00 AM)
Average temperature yesterday: 54 °F

Past Weeks' High & Low Weather Summary

High84 °F (Sep 25, 4:00 PM)100% (Sep 27, 4:00 AM)30.32 "Hg (Sep 27, 4:00 AM)
Low27 °F (Oct 6, 6:00 AM)30% (Sep 27, 3:00 PM)29.57 "Hg (Oct 10, 1:00 PM)
Average49 °F76%30.05 "Hg
* Reported Sep 25 1:00 PM — Oct 10 1:00 PM, Moose Jaw, Weather by CustomWeather, © 2015

Note: Actual official high and low records may vary slightly from our data, if they occured in-between our weather recording intervals... More about our weather records


Moose Jaw weather history for previous 24 hours

Time TempWeatherWind HumidityBarometerVisibility
1:00 PM
Sat, Oct 10
73 °FPartly sunny.17 mph47%29.57 "Hg15 mi
12:00 PM72 °FPartly sunny.17 mph50%29.60 "Hg15 mi
11:00 AM68 °FMostly cloudy.12 mph53%29.61 "Hg15 mi
10:00 AM61 °FMore clouds than sun.12 mph63%29.64 "Hg15 mi
9:00 AM59 °FOvercast.10 mph68%29.62 "Hg15 mi
8:00 AM55 °FHigh level clouds.12 mph72%29.63 "Hg15 mi
7:00 AM54 °FHigh level clouds.10 mph77%29.62 "Hg15 mi
6:00 AM54 °FPassing clouds.13 mph72%29.61 "Hg15 mi
5:00 AM55 °FPassing clouds.12 mph67%29.61 "Hg15 mi
4:00 AM55 °FPassing clouds.12 mph67%29.62 "Hg15 mi
3:00 AM54 °FPassing clouds.12 mph72%29.62 "Hg15 mi
2:00 AM55 °FPassing clouds.12 mph67%29.63 "Hg15 mi
1:00 AM57 °FHigh level clouds.13 mph63%29.64 "Hg15 mi
12:00 AM57 °FOvercast.10 mph63%29.65 "Hg15 mi
11:00 PM
Fri, Oct 9
55 °FMostly cloudy.8 mph72%29.68 "Hg15 mi
10:00 PM54 °FPassing clouds.8 mph77%29.70 "Hg15 mi
9:00 PM55 °FPassing clouds.8 mph72%29.72 "Hg15 mi
8:00 PM54 °FPassing clouds.10 mph72%29.76 "Hg15 mi
7:00 PM57 °FPassing clouds.10 mph67%29.75 "Hg15 mi
6:00 PM64 °FPartly sunny.7 mph52%29.77 "Hg15 mi
5:00 PM73 °FPartly sunny.14 mph38%29.78 "Hg15 mi
4:00 PM73 °FPartly sunny.14 mph41%29.79 "Hg15 mi
3:00 PM75 °FPassing clouds.16 mph36%29.80 "Hg15 mi
2:00 PM73 °FPassing clouds.21 mph41%29.83 "Hg15 mi
Weather by CustomWeather, © 2015

See weather overviewHow to use our weather pages